| time (UTC) | temp F | wind direction | speed MPH | gust MPH | rain 1hr in | rain 24hr in | rain mn in | humidity % | barometer mb |
| 20260505152910 | 73 | 266 | 6.0 | 8.0 | 0.00 | 0.04 | 0.04 | 51 | 1011.2 |
| 20260505152407 | 73 | 290 | 7.0 | 12.0 | 0.00 | 0.04 | 0.04 | 53 | 1011.3 |
| 20260505151901 | 73 | 300 | 9.0 | 11.0 | 0.00 | 0.04 | 0.04 | 52 | 1011.1 |
| 20260505151358 | 73 | 289 | 9.0 | 10.0 | 0.00 | 0.04 | 0.04 | 54 | 1011.2 |
| 20260505150855 | 73 | 290 | 7.0 | 10.0 | 0.00 | 0.04 | 0.04 | 53 | 1011.4 |
| 20260505150352 | 73 | 300 | 6.0 | 8.0 | 0.00 | 0.04 | 0.04 | 56 | 1011.5 |
| 20260505140316 | 69 | 269 | 2.0 | 5.0 | 0.00 | 0.04 | 0.04 | 60 | 1011.7 |
| 20260505130240 | 65 | 274 | 4.0 | 5.0 | 0.00 | 0.04 | 0.04 | 65 | 1011.8 |
| 20260505124731 | 64 | 268 | 3.0 | 4.0 | 0.00 | 0.04 | 0.04 | 66 | 1011.9 |
| 20260505124227 | 64 | 269 | 3.0 | 4.0 | 0.00 | 0.04 | 0.04 | 67 | 1011.9 |
| 20260505123722 | 64 | 270 | 3.0 | 4.0 | 0.00 | 0.04 | 0.04 | 67 | 1011.8 |
| 20260505123220 | 63 | 263 | 5.0 | 7.0 | 0.00 | 0.04 | 0.04 | 68 | 1011.8 |
| 20260505122716 | 63 | 267 | 5.0 | 5.0 | 0.00 | 0.04 | 0.04 | 68 | 1011.6 |
| 20260505122214 | 63 | 262 | 4.0 | 5.0 | 0.00 | 0.04 | 0.04 | 68 | 1011.7 |
| 20260505121710 | 62 | 257 | 4.0 | 4.0 | 0.00 | 0.04 | 0.04 | 70 | 1011.7 |
| 20260505121207 | 62 | 281 | 2.0 | 4.0 | 0.00 | 0.04 | 0.04 | 74 | 1011.7 |
| 20260505120703 | 62 | 281 | 0.0 | 1.0 | 0.00 | 0.04 | 0.04 | 75 | 1011.5 |
| 20260505120159 | 60 | 281 | 1.0 | 1.0 | 0.00 | 0.04 | 0.04 | 76 | 1011.6 |
| 20260505115652 | 60 | 278 | 1.0 | 1.0 | 0.00 | 0.04 | 0.04 | 78 | 1011.6 |
| 20260505115151 | 60 | 281 | 0.0 | 1.0 | 0.00 | 0.04 | 0.04 | 79 | 1011.6 |
| 20260505114647 | 60 | 281 | 1.0 | 3.0 | 0.00 | 0.04 | 0.04 | 80 | 1011.6 |
| 20260505114143 | 59 | 282 | 3.0 | 3.0 | 0.00 | 0.04 | 0.04 | 78 | 1011.6 |
| 20260505113635 | 62 | 249 | 1.0 | 3.0 | 0.00 | 0.04 | 0.04 | 77 | 1011.7 |
| 20260505113132 | 61 | 206 | 0.0 | 0.0 | 0.00 | 0.04 | 0.04 | 82 | 1011.5 |
| 20260505112628 | 60 | 206 | 0.0 | 0.0 | 0.00 | 0.04 | 0.04 | 84 | 1011.5 |
| 20260505112126 | 60 | 206 | 0.0 | 0.0 | 0.00 | 0.04 | 0.04 | 81 | 1011.4 |
| 20260505111620 | 58 | 206 | 0.0 | 0.0 | 0.00 | 0.04 | 0.04 | 83 | 1011.6 |
| 20260505111116 | 57 | 206 | 0.0 | 0.0 | 0.00 | 0.04 | 0.04 | 87 | 1011.2 |
| 20260505110612 | 57 | 206 | 1.0 | 1.0 | 0.00 | 0.04 | 0.04 | 86 | 1011.2 |
| 20260505110109 | 57 | 206 | 0.0 | 0.0 | 0.00 | 0.04 | 0.04 | 84 | 1011.3 |
| 20260505102045 | 52 | 210 | 0.0 | 1.0 | 0.00 | 0.04 | 0.04 | 91 | 1011.1 |
| 20260505101543 | 53 | 210 | 0.0 | 1.0 | 0.00 | 0.04 | 0.04 | 88 | 1011.2 |
| 20260505101039 | 54 | 209 | 0.0 | 1.0 | 0.00 | 0.04 | 0.04 | 87 | 1011.0 |
| 20260505100536 | 54 | 210 | 1.0 | 1.0 | 0.00 | 0.04 | 0.04 | 86 | 1011.0 |
| 20260505100033 | 54 | 210 | 0.0 | 0.0 | 0.00 | 0.04 | 0.04 | 87 | 1010.9 |
| 20260505095529 | 55 | 210 | 0.0 | 1.0 | 0.00 | 0.04 | 0.04 | 86 | 1010.8 |
| 20260505095026 | 55 | 210 | 0.0 | 0.0 | 0.00 | 0.04 | 0.04 | 84 | 1010.8 |
| 20260505094522 | 55 | 210 | 0.0 | 1.0 | 0.00 | 0.04 | 0.04 | 84 | 1010.9 |
| 20260505094019 | 55 | 210 | 0.0 | 1.0 | 0.00 | 0.04 | 0.04 | 85 | 1010.8 |
| 20260505093515 | 55 | 210 | 0.0 | 1.0 | 0.00 | 0.04 | 0.04 | 85 | 1010.8 |
| 20260505093013 | 55 | 209 | 1.0 | 3.0 | 0.00 | 0.04 | 0.04 | 85 | 1010.7 |
| 20260505092510 | 55 | 210 | 0.0 | 3.0 | 0.00 | 0.04 | 0.04 | 84 | 1010.7 |
| 20260505092008 | 55 | 192 | 1.0 | 3.0 | 0.00 | 0.04 | 0.04 | 84 | 1010.6 |
| 20260505091505 | 55 | 193 | 2.0 | 3.0 | 0.00 | 0.04 | 0.04 | 84 | 1010.7 |
| 20260505091003 | 55 | 210 | 0.0 | 3.0 | 0.00 | 0.04 | 0.04 | 85 | 1010.7 |
| 20260505090501 | 55 | 207 | 1.0 | 4.0 | 0.00 | 0.04 | 0.04 | 82 | 1010.7 |
| 20260505085958 | 53 | 191 | 2.0 | 3.0 | 0.00 | 0.04 | 0.04 | 90 | 1010.6 |
| 20260505085456 | 53 | 206 | 1.0 | 3.0 | 0.00 | 0.04 | 0.04 | 92 | 1010.8 |
| 20260505084954 | 53 | 206 | 0.0 | 1.0 | 0.00 | 0.04 | 0.04 | 92 | 1010.9 |
| 20260505084452 | 53 | 206 | 0.0 | 0.0 | 0.00 | 0.04 | 0.04 | 93 | 1011.2 |
| 20260505083949 | 54 | 206 | 0.0 | 0.0 | 0.00 | 0.04 | 0.04 | 91 | 1011.0 |
| 20260505083447 | 55 | 206 | 0.0 | 3.0 | 0.12 | 0.04 | 0.04 | 91 | 1010.9 |
| 20260505082943 | 55 | 205 | 0.0 | 3.0 | 0.05 | 0.03 | 0.03 | 87 | 1010.8 |
| 20260505082439 | 54 | 210 | 0.0 | 3.0 | 0.00 | 0.02 | 0.02 | 91 | 1011.3 |
| 20260505081936 | 55 | 263 | 0.0 | 1.0 | 0.00 | 0.02 | 0.02 | 88 | 1011.0 |
| 20260505081433 | 56 | 263 | 0.0 | 1.0 | 0.07 | 0.02 | 0.02 | 86 | 1010.9 |
| 20260505080929 | 56 | 273 | 1.0 | 3.0 | 0.12 | 0.02 | 0.02 | 83 | 1011.0 |
| 20260505080425 | 58 | 281 | 1.0 | 3.0 | 0.05 | 0.01 | 0.01 | 78 | 1011.0 |
| 20260505075921 | 59 | 283 | 4.0 | 5.0 | 0.00 | 0.00 | 0.00 | 68 | 1011.0 |
| 20260505075418 | 59 | 272 | 3.0 | 4.0 | 0.00 | 0.00 | 0.00 | 68 | 1010.7 |
| 20260505074915 | 59 | 282 | 5.0 | 5.0 | 0.00 | 0.00 | 0.00 | 68 | 1010.9 |
| 20260505074412 | 59 | 290 | 1.0 | 3.0 | 0.00 | 0.00 | 0.00 | 67 | 1010.6 |
| 20260505073909 | 59 | 289 | 3.0 | 5.0 | 0.00 | 0.00 | 0.00 | 67 | 1010.5 |
| 20260505073407 | 60 | 285 | 3.0 | 5.0 | 0.00 | 0.00 | 0.00 | 66 | 1010.2 |
| 20260505072904 | 60 | 283 | 3.0 | 4.0 | 0.00 | 0.00 | 0.00 | 65 | 1010.2 |
| 20260505072400 | 60 | 266 | 4.0 | 5.0 | 0.00 | 0.00 | 0.00 | 64 | 1010.5 |
| 20260505071856 | 60 | 272 | 3.0 | 4.0 | 0.00 | 0.00 | 0.00 | 64 | 1010.4 |
| 20260505071353 | 60 | 276 | 2.0 | 4.0 | 0.00 | 0.00 | 0.00 | 64 | 1010.6 |
| 20260505070851 | 60 | 264 | 4.0 | 5.0 | 0.00 | 0.00 | 0.00 | 64 | 1010.5 |
| 20260505070347 | 60 | 275 | 2.0 | 4.0 | 0.00 | 0.00 | 0.00 | 63 | 1010.5 |
| 20260505065842 | 60 | 272 | 3.0 | 4.0 | 0.00 | 0.00 | 0.00 | 63 | 1010.4 |
| 20260505065340 | 60 | 270 | 2.0 | 3.0 | 0.00 | 0.00 | 0.00 | 63 | 1010.6 |
| 20260505064836 | 60 | 269 | 3.0 | 4.0 | 0.00 | 0.00 | 0.00 | 62 | 1010.4 |
| 20260505064334 | 60 | 274 | 2.0 | 4.0 | 0.00 | 0.00 | 0.00 | 63 | 1010.6 |
| 20260505063832 | 59 | 274 | 3.0 | 4.0 | 0.00 | 0.00 | 0.00 | 64 | 1010.6 |
| 20260505063327 | 58 | 277 | 0.0 | 0.0 | 0.00 | 0.00 | 0.00 | 67 | 1010.6 |
| 20260505062824 | 59 | 277 | 0.0 | 0.0 | 0.00 | 0.00 | 0.00 | 66 | 1010.6 |
| 20260505062322 | 58 | 276 | 3.0 | 4.0 | 0.00 | 0.00 | 0.00 | 64 | 1010.6 |
| 20260505061818 | 58 | 276 | 0.0 | 0.0 | 0.00 | 0.00 | 0.00 | 67 | 1010.6 |
| 20260505061316 | 58 | 276 | 1.0 | 1.0 | 0.00 | 0.00 | 0.00 | 66 | 1010.6 |
| 20260505060814 | 58 | 276 | 1.0 | 3.0 | 0.00 | 0.00 | 0.00 | 64 | 1010.7 |
| 20260505060310 | 58 | 276 | 2.0 | 3.0 | 0.00 | 0.00 | 0.00 | 65 | 1010.7 |
| 20260505055806 | 57 | 276 | 0.0 | 1.0 | 0.00 | 0.00 | 0.00 | 66 | 1010.7 |
| 20260505055303 | 56 | 276 | 1.0 | 3.0 | 0.00 | 0.00 | 0.00 | 67 | 1010.6 |
| 20260505054800 | 56 | 276 | 0.0 | 0.0 | 0.00 | 0.00 | 0.00 | 66 | 1010.7 |
| 20260505054257 | 56 | 276 | 0.0 | 0.0 | 0.00 | 0.00 | 0.00 | 66 | 1010.7 |
| 20260505053755 | 57 | 276 | 0.0 | 0.0 | 0.00 | 0.00 | 0.00 | 65 | 1010.6 |
| 20260505053252 | 58 | 276 | 0.0 | 1.0 | 0.00 | 0.00 | 0.00 | 63 | 1010.6 |
| 20260505052749 | 59 | 276 | 2.0 | 3.0 | 0.00 | 0.00 | 0.00 | 60 | 1010.7 |
| 20260505052246 | 59 | 276 | 3.0 | 3.0 | 0.00 | 0.00 | 0.00 | 61 | 1010.7 |
| 20260505051743 | 59 | 276 | 1.0 | 3.0 | 0.00 | 0.00 | 0.00 | 60 | 1010.6 |
| 20260505051241 | 60 | 276 | 2.0 | 3.0 | 0.00 | 0.00 | 0.00 | 59 | 1010.5 |
| 20260505050738 | 61 | 274 | 2.0 | 4.0 | 0.00 | 0.00 | 0.00 | 57 | 1010.7 |
| 20260505050236 | 61 | 276 | 3.0 | 4.0 | 0.00 | 0.00 | 0.00 | 56 | 1010.6 |
| 20260505041700 | 61 | 288 | 2.0 | 3.0 | 0.00 | 0.00 | 0.00 | 56 | 1010.5 |
| 20260505041158 | 61 | 289 | 3.0 | 3.0 | 0.00 | 0.00 | 0.00 | 55 | 1010.4 |
| 20260505040654 | 62 | 283 | 4.0 | 4.0 | 0.00 | 0.00 | 0.00 | 53 | 1010.5 |
| 20260505040151 | 62 | 273 | 3.0 | 5.0 | 0.00 | 0.00 | 0.00 | 54 | 1010.4 |
| 20260505035647 | 62 | 281 | 5.0 | 5.0 | 0.00 | 0.00 | 0.00 | 53 | 1010.5 |
| 20260505035139 | 62 | 283 | 4.0 | 5.0 | 0.00 | 0.00 | 0.00 | 53 | 1010.3 |
| 20260505034635 | 62 | 290 | 3.0 | 5.0 | 0.00 | 0.00 | 0.00 | 53 | 1010.3 |
| 20260505034133 | 62 | 278 | 3.0 | 5.0 | 0.00 | 0.00 | 0.00 | 53 | 1010.2 |
| 20260505033628 | 62 | 286 | 4.0 | 5.0 | 0.00 | 0.00 | 0.00 | 53 | 1010.2 |
| 20260505033127 | 62 | 346 | 4.0 | 5.0 | 0.00 | 0.00 | 0.00 | 53 | 1010.3 |
| 20260505032625 | 62 | 282 | 4.0 | 5.0 | 0.00 | 0.00 | 0.00 | 53 | 1010.5 |
| 20260505032121 | 62 | 248 | 2.0 | 4.0 | 0.00 | 0.00 | 0.00 | 54 | 1010.4 |
| 20260505031619 | 61 | 257 | 1.0 | 3.0 | 0.00 | 0.00 | 0.00 | 56 | 1010.5 |
| 20260505031114 | 61 | 294 | 4.0 | 4.0 | 0.00 | 0.00 | 0.00 | 54 | 1010.3 |
| 20260505030612 | 60 | 243 | 2.0 | 4.0 | 0.00 | 0.00 | 0.00 | 56 | 1010.5 |
| 20260505030107 | 60 | 270 | 2.0 | 3.0 | 0.00 | 0.00 | 0.00 | 57 | 1010.3 |
| 20260505025603 | 59 | 347 | 1.0 | 3.0 | 0.00 | 0.00 | 0.00 | 58 | 1010.4 |
| 20260505025102 | 59 | 306 | 1.0 | 3.0 | 0.00 | 0.00 | 0.00 | 58 | 1010.4 |
| 20260505024559 | 59 | 304 | 1.0 | 1.0 | 0.00 | 0.00 | 0.00 | 57 | 1010.7 |
| 20260505024056 | 59 | 323 | 0.0 | 0.0 | 0.00 | 0.00 | 0.00 | 57 | 1010.7 |
| 20260505023554 | 60 | 301 | 1.0 | 1.0 | 0.00 | 0.00 | 0.00 | 57 | 1010.5 |
| 20260505023051 | 61 | 258 | 1.0 | 3.0 | 0.00 | 0.00 | 0.00 | 56 | 1010.7 |
| 20260505022548 | 61 | 301 | 2.0 | 4.0 | 0.00 | 0.00 | 0.00 | 52 | 1010.5 |
| 20260505022045 | 60 | 298 | 2.0 | 3.0 | 0.00 | 0.00 | 0.00 | 55 | 1010.5 |
| 20260505021542 | 59 | 259 | 1.0 | 1.0 | 0.00 | 0.00 | 0.00 | 59 | 1010.7 |
| 20260505021038 | 59 | 259 | 0.0 | 0.0 | 0.00 | 0.00 | 0.00 | 59 | 1010.8 |
| 20260505020533 | 59 | 336 | 0.0 | 3.0 | 0.00 | 0.00 | 0.00 | 57 | 1010.8 |
| 20260505020030 | 59 | 282 | 1.0 | 1.0 | 0.00 | 0.00 | 0.00 | 59 | 1010.8 |
| 20260505015527 | 59 | 296 | 0.0 | 1.0 | 0.00 | 0.00 | 0.00 | 58 | 1010.8 |
| 20260505015024 | 59 | 303 | 1.0 | 1.0 | 0.00 | 0.00 | 0.00 | 59 | 1010.8 |
| 20260505014521 | 58 | 323 | 0.0 | 0.0 | 0.00 | 0.00 | 0.00 | 59 | 1010.8 |
| 20260505014018 | 58 | 324 | 0.0 | 1.0 | 0.00 | 0.00 | 0.00 | 59 | 1010.6 |
| 20260505013515 | 59 | 218 | 0.0 | 0.0 | 0.00 | 0.00 | 0.00 | 59 | 1010.8 |
| 20260505013012 | 59 | 217 | 0.0 | 0.0 | 0.00 | 0.00 | 0.00 | 59 | 1010.8 |
| 20260505012510 | 59 | 217 | 0.0 | 0.0 | 0.00 | 0.00 | 0.00 | 59 | 1010.7 |
| 20260505012007 | 59 | 217 | 0.0 | 0.0 | 0.00 | 0.00 | 0.00 | 59 | 1010.4 |
| 20260505011503 | 59 | 217 | 0.0 | 0.0 | 0.00 | 0.00 | 0.00 | 58 | 1010.5 |
| 20260505011000 | 60 | 217 | 0.0 | 1.0 | 0.00 | 0.00 | 0.00 | 56 | 1010.5 |
| 20260505010455 | 60 | 217 | 0.0 | 1.0 | 0.00 | 0.00 | 0.00 | 55 | 1010.5 |
| 20260505005951 | 61 | 209 | 0.0 | 3.0 | 0.00 | 0.00 | 0.00 | 55 | 1010.3 |
| 20260505005448 | 61 | 319 | 0.0 | 0.0 | 0.00 | 0.00 | 0.00 | 55 | 1010.5 |
| 20260505004946 | 62 | 28 | 0.0 | 0.0 | 0.00 | 0.00 | 0.00 | 53 | 1010.3 |
| 20260505004443 | 63 | 28 | 0.0 | 0.0 | 0.00 | 0.00 | 0.00 | 51 | 1010.4 |
| 20260505003940 | 61 | 299 | 0.0 | 4.0 | 0.00 | 0.00 | 0.00 | 50 | 1010.3 |
| 20260505003437 | 62 | 273 | 0.0 | 0.0 | 0.00 | 0.00 | 0.00 | 54 | 1010.3 |
| 20260505002933 | 62 | 273 | 0.0 | 3.0 | 0.00 | 0.00 | 0.00 | 53 | 1010.3 |
| 20260505002429 | 62 | 337 | 0.0 | 1.0 | 0.00 | 0.00 | 0.00 | 52 | 1010.3 |
| 20260505001928 | 63 | 337 | 0.0 | 1.0 | 0.00 | 0.00 | 0.00 | 51 | 1010.1 |
| 20260505001425 | 64 | 343 | 1.0 | 1.0 | 0.00 | 0.00 | 0.00 | 50 | 1010.0 |
| 20260505000922 | 64 | 313 | 2.0 | 4.0 | 0.00 | 0.00 | 0.00 | 48 | 1010.0 |
| 20260505000420 | 65 | 342 | 1.0 | 5.0 | 0.00 | 0.00 | 0.00 | 48 | 1010.1 |
| 20260504235916 | 65 | 292 | 2.0 | 4.0 | 0.00 | 0.00 | 0.00 | 47 | 1010.0 |
| 20260504235414 | 66 | 325 | 2.0 | 3.0 | 0.00 | 0.00 | 0.00 | 47 | 1010.0 |
| 20260504234910 | 66 | 254 | 0.0 | 4.0 | 0.00 | 0.00 | 0.00 | 45 | 1009.7 |
| 20260504234408 | 66 | 333 | 4.0 | 5.0 | 0.00 | 0.00 | 0.00 | 45 | 1009.7 |
| 20260504233904 | 67 | 268 | 4.0 | 4.0 | 0.00 | 0.00 | 0.00 | 45 | 1009.7 |
| 20260504233359 | 67 | 276 | 4.0 | 5.0 | 0.00 | 0.00 | 0.00 | 45 | 1009.6 |
| 20260504232856 | 68 | 314 | 2.0 | 4.0 | 0.00 | 0.00 | 0.00 | 45 | 1009.5 |
| 20260504232354 | 68 | 284 | 4.0 | 4.0 | 0.00 | 0.00 | 0.00 | 44 | 1009.4 |
| 20260504231850 | 68 | 292 | 2.0 | 3.0 | 0.00 | 0.00 | 0.00 | 44 | 1009.4 |
| 20260504231347 | 69 | 302 | 2.0 | 5.0 | 0.00 | 0.00 | 0.00 | 43 | 1009.5 |
| 20260504230843 | 69 | 279 | 3.0 | 4.0 | 0.00 | 0.00 | 0.00 | 42 | 1009.2 |
| 20260504230341 | 70 | 283 | 5.0 | 7.0 | 0.00 | 0.00 | 0.00 | 41 | 1009.4 |
| 20260504225839 | 70 | 281 | 6.0 | 7.0 | 0.00 | 0.00 | 0.00 | 40 | 1009.2 |
| 20260504225335 | 70 | 288 | 4.0 | 5.0 | 0.00 | 0.00 | 0.00 | 40 | 1009.3 |
| 20260504224833 | 70 | 268 | 4.0 | 8.0 | 0.00 | 0.00 | 0.00 | 39 | 1009.2 |
| 20260504224330 | 70 | 286 | 6.0 | 8.0 | 0.00 | 0.00 | 0.00 | 40 | 1009.3 |
| 20260504223826 | 70 | 276 | 3.0 | 5.0 | 0.00 | 0.00 | 0.00 | 39 | 1009.2 |
| 20260504223322 | 70 | 272 | 7.0 | 8.0 | 0.00 | 0.00 | 0.00 | 39 | 1009.3 |
| 20260504222819 | 70 | 269 | 7.0 | 10.0 | 0.00 | 0.00 | 0.00 | 39 | 1009.2 |
| 20260504222316 | 71 | 268 | 4.0 | 8.0 | 0.00 | 0.00 | 0.00 | 39 | 1009.4 |
| 20260504221814 | 71 | 285 | 3.0 | 5.0 | 0.00 | 0.00 | 0.00 | 39 | 1009.4 |
| 20260504221310 | 71 | 269 | 4.0 | 7.0 | 0.00 | 0.00 | 0.00 | 39 | 1009.2 |
| 20260504220807 | 71 | 254 | 6.0 | 11.0 | 0.00 | 0.00 | 0.00 | 39 | 1009.4 |
| 20260504220304 | 71 | 288 | 5.0 | 10.0 | 0.00 | 0.00 | 0.00 | 39 | 1009.3 |
| 20260504215802 | 72 | 275 | 5.0 | 7.0 | 0.00 | 0.00 | 0.00 | 38 | 1009.5 |
| 20260504215258 | 72 | 274 | 5.0 | 7.0 | 0.00 | 0.00 | 0.00 | 40 | 1009.5 |
| 20260504214754 | 72 | 277 | 5.0 | 8.0 | 0.00 | 0.00 | 0.00 | 39 | 1009.6 |
| 20260504214250 | 72 | 283 | 3.0 | 5.0 | 0.00 | 0.00 | 0.00 | 39 | 1009.5 |
| 20260504213747 | 70 | 267 | 7.0 | 10.0 | 0.00 | 0.00 | 0.00 | 39 | 1009.5 |
| 20260504213243 | 71 | 290 | 6.0 | 10.0 | 0.00 | 0.00 | 0.00 | 39 | 1009.5 |
| 20260504212741 | 71 | 269 | 2.0 | 5.0 | 0.00 | 0.00 | 0.00 | 38 | 1009.3 |
| 20260504212237 | 72 | 279 | 4.0 | 5.0 | 0.00 | 0.00 | 0.00 | 37 | 1009.7 |
| 20260504211735 | 72 | 267 | 4.0 | 5.0 | 0.00 | 0.00 | 0.00 | 37 | 1009.4 |
| 20260504211231 | 72 | 264 | 5.0 | 8.0 | 0.00 | 0.00 | 0.00 | 38 | 1009.5 |
| 20260504210728 | 71 | 268 | 7.0 | 11.0 | 0.00 | 0.00 | 0.00 | 38 | 1009.6 |
| 20260504210225 | 72 | 317 | 6.0 | 8.0 | 0.00 | 0.00 | 0.00 | 37 | 1009.6 |
| 20260504205722 | 72 | 293 | 6.0 | 8.0 | 0.00 | 0.00 | 0.00 | 37 | 1009.5 |
| 20260504205220 | 72 | 274 | 6.0 | 7.0 | 0.00 | 0.00 | 0.00 | 38 | 1009.8 |
| 20260504204718 | 72 | 263 | 7.0 | 12.0 | 0.00 | 0.00 | 0.00 | 37 | 1010.0 |
| 20260504204216 | 72 | 281 | 10.0 | 12.0 | 0.00 | 0.00 | 0.00 | 38 | 1009.8 |
| 20260504203715 | 72 | 272 | 5.0 | 7.0 | 0.00 | 0.00 | 0.00 | 38 | 1009.7 |
| 20260504203212 | 72 | 281 | 5.0 | 8.0 | 0.00 | 0.00 | 0.00 | 39 | 1009.8 |
| 20260504202712 | 71 | 266 | 8.0 | 10.0 | 0.00 | 0.00 | 0.00 | 38 | 1010.1 |
| 20260504202209 | 71 | 300 | 10.0 | 12.0 | 0.00 | 0.00 | 0.00 | 39 | 1010.0 |
| 20260504201706 | 73 | 312 | 6.0 | 8.0 | 0.00 | 0.00 | 0.00 | 39 | 1010.1 |
| 20260504201204 | 71 | 274 | 6.0 | 10.0 | 0.00 | 0.00 | 0.00 | 37 | 1010.2 |
| 20260504200701 | 72 | 288 | 7.0 | 14.0 | 0.00 | 0.00 | 0.00 | 38 | 1010.1 |
| 20260504200152 | 72 | 271 | 9.0 | 14.0 | 0.00 | 0.00 | 0.00 | 39 | 1010.1 |
| 20260504195648 | 71 | 299 | 6.0 | 10.0 | 0.00 | 0.00 | 0.00 | 38 | 1010.1 |
| 20260504195144 | 71 | 295 | 10.0 | 12.0 | 0.00 | 0.00 | 0.00 | 38 | 1010.3 |
| 20260504194641 | 70 | 20 | 4.0 | 8.0 | 0.00 | 0.00 | 0.00 | 40 | 1010.3 |
| 20260504194137 | 70 | 240 | 6.0 | 11.0 | 0.00 | 0.00 | 0.00 | 38 | 1010.4 |
| 20260504193633 | 70 | 263 | 7.0 | 8.0 | 0.00 | 0.00 | 0.00 | 40 | 1010.6 |
| 20260504193132 | 70 | 287 | 7.0 | 12.0 | 0.00 | 0.00 | 0.00 | 38 | 1010.6 |
| 20260504192629 | 71 | 289 | 6.0 | 10.0 | 0.00 | 0.00 | 0.00 | 38 | 1010.6 |
| 20260504192127 | 70 | 271 | 10.0 | 14.0 | 0.00 | 0.00 | 0.00 | 39 | 1010.5 |
| 20260504191626 | 70 | 266 | 5.0 | 11.0 | 0.00 | 0.00 | 0.00 | 40 | 1010.7 |
| 20260504191121 | 70 | 287 | 7.0 | 10.0 | 0.00 | 0.00 | 0.00 | 39 | 1010.6 |
| 20260504190617 | 70 | 279 | 7.0 | 11.0 | 0.00 | 0.00 | 0.00 | 39 | 1010.7 |
| 20260504190114 | 70 | 263 | 5.0 | 7.0 | 0.00 | 0.00 | 0.00 | 40 | 1010.6 |
| 20260504185611 | 69 | 268 | 8.0 | 10.0 | 0.00 | 0.00 | 0.00 | 40 | 1010.7 |
| 20260504185107 | 70 | 281 | 4.0 | 11.0 | 0.00 | 0.00 | 0.00 | 40 | 1010.8 |
| 20260504184603 | 69 | 287 | 7.0 | 12.0 | 0.00 | 0.00 | 0.00 | 39 | 1010.8 |
| 20260504184058 | 69 | 292 | 4.0 | 7.0 | 0.00 | 0.00 | 0.00 | 40 | 1011.0 |
| 20260504183556 | 69 | 275 | 5.0 | 8.0 | 0.00 | 0.00 | 0.00 | 39 | 1011.0 |
| 20260504183054 | 69 | 261 | 6.0 | 10.0 | 0.00 | 0.00 | 0.00 | 40 | 1011.1 |
| 20260504182550 | 69 | 300 | 8.0 | 12.0 | 0.00 | 0.00 | 0.00 | 41 | 1011.0 |
| 20260504182048 | 69 | 270 | 7.0 | 11.0 | 0.00 | 0.00 | 0.00 | 40 | 1011.5 |
| 20260504181545 | 69 | 283 | 7.0 | 11.0 | 0.00 | 0.00 | 0.00 | 40 | 1011.2 |
| 20260504181043 | 68 | 306 | 7.0 | 11.0 | 0.00 | 0.00 | 0.00 | 40 | 1011.3 |
| 20260504180542 | 68 | 278 | 8.0 | 10.0 | 0.00 | 0.00 | 0.00 | 42 | 1011.3 |
| 20260504180040 | 69 | 255 | 4.0 | 11.0 | 0.00 | 0.00 | 0.00 | 41 | 1011.4 |
| 20260504175537 | 68 | 297 | 8.0 | 14.0 | 0.00 | 0.00 | 0.00 | 41 | 1011.4 |
| 20260504175034 | 69 | 261 | 6.0 | 8.0 | 0.00 | 0.00 | 0.00 | 41 | 1011.4 |
| 20260504174532 | 68 | 280 | 7.0 | 11.0 | 0.00 | 0.00 | 0.00 | 41 | 1011.5 |
| 20260504174028 | 68 | 265 | 5.0 | 8.0 | 0.00 | 0.00 | 0.00 | 40 | 1011.7 |
| 20260504173525 | 68 | 278 | 6.0 | 8.0 | 0.00 | 0.00 | 0.00 | 42 | 1011.7 |
| 20260504173023 | 68 | 275 | 6.0 | 8.0 | 0.00 | 0.00 | 0.00 | 41 | 1011.6 |
| 20260504172519 | 68 | 278 | 4.0 | 8.0 | 0.00 | 0.00 | 0.00 | 44 | 1011.9 |
| 20260504172015 | 67 | 263 | 7.0 | 8.0 | 0.00 | 0.00 | 0.00 | 40 | 1012.2 |
| 20260504171512 | 67 | 264 | 6.0 | 8.0 | 0.00 | 0.00 | 0.00 | 41 | 1012.2 |
| 20260504171009 | 66 | 263 | 6.0 | 11.0 | 0.00 | 0.00 | 0.00 | 42 | 1012.3 |
| 20260504170505 | 66 | 289 | 7.0 | 11.0 | 0.00 | 0.00 | 0.00 | 42 | 1012.5 |
| 20260504160425 | 64 | 283 | 6.0 | 8.0 | 0.00 | 0.00 | 0.00 | 41 | 1013.0 |